TimeCDT,TemperatureF,Dew PointF,Humidity,Sea Level PressureIn,VisibilityMPH,Wind Direction,Wind SpeedMPH,Gust SpeedMPH,PrecipitationIn,Events,Conditions,WindDirDegrees,DateUTC
12:15 AM,53.6,41.0,62,30.21,10.0,NNE,11.5,-,N/A,,Overcast,20,2012-10-05 05:15:00
12:35 AM,53.6,39.2,58,30.20,10.0,NNE,13.8,-,N/A,,Overcast,30,2012-10-05 05:35:00
12:55 AM,53.6,39.2,58,30.20,10.0,NNE,13.8,-,N/A,,Overcast,20,2012-10-05 05:55:00
1:15 AM,53.6,39.2,58,30.20,10.0,NNE,13.8,-,N/A,,Overcast,20,2012-10-05 06:15:00
1:35 AM,53.6,39.2,58,30.20,10.0,NNE,13.8,-,N/A,,Overcast,20,2012-10-05 06:35:00
1:55 AM,53.6,39.2,58,30.21,10.0,NNE,11.5,-,N/A,,Overcast,20,2012-10-05 06:55:00
2:15 AM,53.6,41.0,62,30.19,10.0,NNE,16.1,-,N/A,,Overcast,20,2012-10-05 07:15:00
2:35 AM,53.6,41.0,62,30.19,10.0,North,13.8,-,N/A,,Overcast,10,2012-10-05 07:35:00
2:55 AM,53.6,41.0,62,30.19,10.0,North,13.8,-,N/A,,Overcast,10,2012-10-05 07:55:00
3:15 AM,53.6,41.0,62,30.18,10.0,NNE,12.7,-,N/A,,Overcast,20,2012-10-05 08:15:00
3:35 AM,53.6,41.0,62,30.18,10.0,NNE,13.8,-,N/A,,Overcast,30,2012-10-05 08:35:00
3:55 AM,53.6,41.0,62,30.17,10.0,NNE,12.7,-,N/A,,Overcast,30,2012-10-05 08:55:00
4:15 AM,53.6,41.0,62,30.17,10.0,NNE,15.0,-,N/A,,Overcast,30,2012-10-05 09:15:00
4:35 AM,53.6,41.0,62,30.17,10.0,NE,13.8,17.3,N/A,,Overcast,40,2012-10-05 09:35:00
4:55 AM,53.6,41.0,62,30.16,10.0,NNE,13.8,-,N/A,,Overcast,30,2012-10-05 09:55:00
5:15 AM,53.6,41.0,62,30.17,10.0,NNE,11.5,-,N/A,,Overcast,30,2012-10-05 10:15:00
5:35 AM,53.6,41.0,62,30.17,10.0,NNE,10.4,-,N/A,,Overcast,30,2012-10-05 10:35:00
5:55 AM,51.8,41.0,67,30.17,10.0,NNE,10.4,-,N/A,,Mostly Cloudy,30,2012-10-05 10:55:00
6:17 AM,53.6,41.0,62,30.19,10.0,NNE,13.8,-,N/A,,Overcast,30,2012-10-05 11:17:00
6:50 AM,53.6,41.0,62,30.19,10.0,NNE,16.1,-,N/A,,Overcast,30,2012-10-05 11:50:00
7:50 AM,53.6,41.0,62,30.20,10.0,NE,17.3,24.2,N/A,,Overcast,40,2012-10-05 12:50:00
10:50 AM,55.4,41.0,58,30.20,10.0,NE,12.7,-,N/A,,Mostly Cloudy,50,2012-10-05 15:50:00
11:58 AM,59.0,41.0,51,30.20,10.0,North,17.3,24.2,N/A,,Mostly Cloudy,10,2012-10-05 16:58:00
12:50 PM,59.0,41.0,51,30.20,10.0,NNE,17.3,-,N/A,,Mostly Cloudy,30,2012-10-05 17:50:00
1:50 PM,60.8,37.4,42,30.20,10.0,NNE,17.3,23.0,N/A,,Overcast,20,2012-10-05 18:50:00
2:50 PM,60.8,35.6,39,30.17,10.0,NNE,18.4,25.3,N/A,,Overcast,20,2012-10-05 19:50:00
3:50 PM,62.6,35.6,37,30.17,10.0,NNE,18.4,24.2,N/A,,Mostly Cloudy,20,2012-10-05 20:50:00
4:50 PM,62.6,33.8,34,30.16,10.0,NE,18.4,25.3,N/A,,Partly Cloudy,50,2012-10-05 21:50:00
6:50 PM,57.2,32.0,38,30.19,10.0,NNE,17.3,23.0,N/A,,Scattered Clouds,30,2012-10-05 23:50:00
8:50 PM,50.0,30.2,47,30.24,10.0,NE,10.4,-,N/A,,Scattered Clouds,50,2012-10-06 01:50:00
9:15 PM,50.0,30.2,47,30.25,7.0,NE,8.1,-,N/A,,Clear,50,2012-10-06 02:15:00
9:35 PM,48.2,30.2,50,30.26,10.0,NNE,6.9,-,N/A,,Clear,30,2012-10-06 02:35:00
9:55 PM,46.4,32.0,57,30.27,10.0,North,8.1,-,N/A,,Clear,10,2012-10-06 02:55:00
10:35 PM,44.6,32.0,61,30.28,10.0,NE,9.2,-,N/A,,Clear,40,2012-10-06 03:35:00
10:55 PM,44.6,32.0,61,30.28,10.0,NE,6.9,-,N/A,,Clear,40,2012-10-06 03:55:00
11:15 PM,42.8,32.0,66,30.28,10.0,NNE,6.9,-,N/A,,Clear,30,2012-10-06 04:15:00
11:35 PM,42.8,32.0,66,30.29,10.0,NNE,6.9,-,N/A,,Clear,30,2012-10-06 04:35:00
11:55 PM,42.8,32.0,66,30.28,10.0,NNE,9.2,-,N/A,,Clear,20,2012-10-06 04:55:00